TimeCST,TemperatureF,Dew PointF,Humidity,Sea Level PressureIn,VisibilityMPH,Wind Direction,Wind SpeedMPH,Gust SpeedMPH,PrecipitationIn,Events,Conditions,WindDirDegrees,DateUTC
12:55 AM,17.6,12.2,79,30.02,10.0,NW,13.8,-,N/A,,Overcast,310,2014-01-06 06:55:00
1:15 AM,17.6,12.2,79,30.03,10.0,NNW,8.1,-,N/A,,Overcast,330,2014-01-06 07:15:00
1:35 AM,15.8,10.4,79,30.05,9.0,NW,9.2,-,N/A,,Overcast,320,2014-01-06 07:35:00
1:55 AM,15.8,10.4,79,30.07,7.0,NNW,12.7,-,N/A,,Overcast,330,2014-01-06 07:55:00
2:15 AM,15.8,10.4,79,30.08,8.0,Variable,5.8,-,N/A,,Overcast,0,2014-01-06 08:15:00
2:35 AM,15.8,10.4,79,30.09,7.0,NNW,6.9,-,N/A,,Overcast,340,2014-01-06 08:35:00
2:55 AM,15.8,10.4,79,30.10,6.0,NW,10.4,-,N/A,,Overcast,320,2014-01-06 08:55:00
3:15 AM,15.8,10.4,79,30.11,6.0,NNW,5.8,-,N/A,,Overcast,340,2014-01-06 09:15:00
3:35 AM,14.0,10.4,86,30.12,6.0,NNW,10.4,-,N/A,,Overcast,340,2014-01-06 09:35:00
3:55 AM,12.2,8.6,85,30.13,10.0,North,8.1,-,N/A,,Overcast,350,2014-01-06 09:55:00
4:15 AM,12.2,8.6,85,30.13,4.0,NW,9.2,-,N/A,,Overcast,310,2014-01-06 10:15:00
4:35 AM,12.2,8.6,85,30.15,4.0,WNW,9.2,-,N/A,,Overcast,300,2014-01-06 10:35:00
4:55 AM,10.4,6.8,85,30.15,10.0,Variable,6.9,-,N/A,,Overcast,0,2014-01-06 10:55:00
5:15 AM,10.4,6.8,85,30.18,3.0,WNW,11.5,-,N/A,,Overcast,300,2014-01-06 11:15:00
5:35 AM,8.6,1.4,73,30.18,10.0,NNW,11.5,-,N/A,,Overcast,330,2014-01-06 11:35:00
5:55 AM,8.6,1.4,73,30.21,10.0,WNW,12.7,-,N/A,,Overcast,300,2014-01-06 11:55:00
6:15 AM,6.8,1.4,79,30.21,10.0,NW,12.7,-,N/A,,Overcast,320,2014-01-06 12:15:00
6:35 AM,6.8,1.4,79,30.23,10.0,NW,10.4,-,N/A,,Overcast,320,2014-01-06 12:35:00
6:55 AM,6.8,-0.4,72,30.23,9.0,NW,8.1,-,N/A,,Overcast,320,2014-01-06 12:55:00
7:15 AM,5.0,-2.2,72,30.25,10.0,NW,12.7,-,N/A,,Overcast,310,2014-01-06 13:15:00
7:35 AM,3.2,-2.2,78,30.25,2.5,WNW,10.4,-,N/A,,Overcast,300,2014-01-06 13:35:00
7:55 AM,3.2,-2.2,78,30.27,3.0,NW,8.1,-,N/A,,Overcast,310,2014-01-06 13:55:00
8:15 AM,3.2,-5.8,66,30.27,10.0,NW,10.4,-,N/A,,Mostly Cloudy,310,2014-01-06 14:15:00
8:35 AM,3.2,-5.8,66,30.29,10.0,NW,11.5,-,N/A,,Partly Cloudy,320,2014-01-06 14:35:00
8:55 AM,3.2,-2.2,78,30.30,2.0,WNW,8.1,-,N/A,,Overcast,300,2014-01-06 14:55:00
9:15 AM,3.2,-7.6,61,30.31,8.0,NW,10.4,-,N/A,,Scattered Clouds,320,2014-01-06 15:15:00
9:35 AM,3.2,-4.0,72,30.30,1.8,NW,11.5,-,N/A,,Mostly Cloudy,310,2014-01-06 15:35:00
9:55 AM,3.2,-4.0,72,30.31,2.5,WNW,11.5,-,N/A,,Overcast,300,2014-01-06 15:55:00
10:15 AM,3.2,-7.6,61,30.31,10.0,NNW,10.4,-,N/A,,Scattered Clouds,330,2014-01-06 16:15:00
10:35 AM,3.2,-9.4,56,30.32,10.0,NW,11.5,-,N/A,,Clear,310,2014-01-06 16:35:00
10:55 AM,5.0,-9.4,52,30.31,10.0,NNW,9.2,-,N/A,,Partly Cloudy,330,2014-01-06 16:55:00
11:15 AM,5.0,-9.4,52,30.31,10.0,NW,11.5,-,N/A,,Partly Cloudy,320,2014-01-06 17:15:00
11:35 AM,5.0,-7.6,56,30.30,10.0,WNW,10.4,-,N/A,,Partly Cloudy,300,2014-01-06 17:35:00
11:55 AM,6.8,-7.6,52,30.29,10.0,NW,11.5,-,N/A,,Partly Cloudy,310,2014-01-06 17:55:00
12:15 PM,6.8,-5.8,56,30.29,10.0,NW,12.7,-,N/A,,Partly Cloudy,310,2014-01-06 18:15:00
12:35 PM,5.0,-4.0,66,30.29,6.0,WNW,10.4,-,N/A,,Mostly Cloudy,290,2014-01-06 18:35:00
12:55 PM,3.2,-5.8,66,30.29,7.0,NW,13.8,-,N/A,,Scattered Clouds,310,2014-01-06 18:55:00
1:15 PM,6.8,-7.6,52,30.29,10.0,NW,9.2,-,N/A,,Unknown,320,2014-01-06 19:15:00
1:35 PM,6.8,-7.6,52,30.30,10.0,North,10.4,-,N/A,,Scattered Clouds,360,2014-01-06 19:35:00
1:55 PM,6.8,-7.6,52,30.31,10.0,WNW,10.4,-,N/A,,Partly Cloudy,300,2014-01-06 19:55:00
2:15 PM,6.8,-9.4,48,30.31,10.0,NW,12.7,-,N/A,,Clear,320,2014-01-06 20:15:00
2:35 PM,6.8,-7.6,52,30.32,10.0,WNW,11.5,-,N/A,,Clear,290,2014-01-06 20:35:00
2:55 PM,5.0,-7.6,56,30.32,10.0,NW,6.9,-,N/A,,Unknown,320,2014-01-06 20:55:00
3:15 PM,5.0,-5.8,61,30.32,10.0,North,9.2,-,N/A,,Partly Cloudy,350,2014-01-06 21:15:00
3:35 PM,5.0,-5.8,61,30.33,10.0,NNW,8.1,-,N/A,,Mostly Cloudy,340,2014-01-06 21:35:00
3:55 PM,5.0,-5.8,61,30.33,10.0,NW,8.1,-,N/A,,Mostly Cloudy,320,2014-01-06 21:55:00
4:15 PM,3.2,-7.6,61,30.34,10.0,NNW,4.6,-,N/A,,Mostly Cloudy,330,2014-01-06 22:15:00
4:35 PM,3.2,-7.6,61,30.34,10.0,NW,5.8,-,N/A,,Mostly Cloudy,310,2014-01-06 22:35:00
4:55 PM,3.2,-7.6,61,30.35,10.0,NW,8.1,-,N/A,,Partly Cloudy,310,2014-01-06 22:55:00
5:15 PM,3.2,-5.8,66,30.35,10.0,NNW,4.6,-,N/A,,Clear,340,2014-01-06 23:15:00
5:35 PM,1.4,-5.8,72,30.36,10.0,NNW,4.6,-,N/A,,Clear,330,2014-01-06 23:35:00
5:55 PM,1.4,-5.8,72,30.37,10.0,Calm,Calm,-,N/A,,Mostly Cloudy,0,2014-01-06 23:55:00
6:15 PM,1.4,-5.8,72,30.38,10.0,NW,3.5,-,N/A,,Scattered Clouds,320,2014-01-07 00:15:00
6:35 PM,1.4,-5.8,72,30.39,10.0,NW,4.6,-,N/A,,Scattered Clouds,320,2014-01-07 00:35:00
6:55 PM,1.4,-4.0,78,30.39,10.0,Calm,Calm,-,N/A,,Scattered Clouds,0,2014-01-07 00:55:00
7:15 PM,1.4,-4.0,78,30.39,10.0,Calm,Calm,-,N/A,,Unknown,0,2014-01-07 01:15:00
7:35 PM,1.4,-4.0,78,30.41,10.0,Calm,Calm,-,N/A,,Unknown,0,2014-01-07 01:35:00
7:55 PM,1.4,-4.0,78,30.41,10.0,NW,3.5,-,N/A,,Partly Cloudy,320,2014-01-07 01:55:00
8:15 PM,1.4,-4.0,78,30.42,10.0,NW,4.6,-,N/A,,Unknown,310,2014-01-07 02:15:00
8:35 PM,1.4,-4.0,78,30.42,10.0,NNW,5.8,-,N/A,,Clear,330,2014-01-07 02:35:00
8:55 PM,1.4,-4.0,78,30.43,7.0,NW,4.6,-,N/A,,Mostly Cloudy,320,2014-01-07 02:55:00
9:15 PM,1.4,-4.0,78,30.44,6.0,NNW,9.2,-,N/A,,Mostly Cloudy,330,2014-01-07 03:15:00
9:35 PM,1.4,-7.6,66,30.45,10.0,NW,10.4,-,N/A,,Partly Cloudy,310,2014-01-07 03:35:00
9:55 PM,-0.4,-7.6,72,30.45,10.0,NW,6.9,-,N/A,,Clear,320,2014-01-07 03:55:00
10:15 PM,-0.4,-7.6,72,30.46,10.0,NW,4.6,-,N/A,,Partly Cloudy,320,2014-01-07 04:15:00
10:35 PM,-0.4,-7.6,72,30.47,10.0,NW,4.6,-,N/A,,Partly Cloudy,320,2014-01-07 04:35:00
10:55 PM,-0.4,-7.6,72,30.47,10.0,NW,6.9,-,N/A,,Clear,310,2014-01-07 04:55:00
11:15 PM,-0.4,-7.6,72,30.47,10.0,NW,3.5,-,N/A,,Clear,320,2014-01-07 05:15:00
11:35 PM,-0.4,-7.6,72,30.47,10.0,Calm,Calm,-,N/A,,Clear,0,2014-01-07 05:35:00
11:55 PM,-2.2,-7.6,78,30.48,10.0,Calm,Calm,-,N/A,,Clear,0,2014-01-07 05:55:00